Weather in Puerto de Santiago

Spain     28°14′07″N   16°50′29″W
temp.,
°C
wind,
m/s
gust,
m/s
humid.,
%
clouds,
%
prec.,
mm/h
press.,
hPa
HPBL,
m
14 april, wed
wed1401:00+14nw1176100 0.0 1021119
04:00+13n23813 0.0 102059
07:00+12n33741 0.0 101947
10:00+16nnw335156 0.0 1020490
13:00+18nw32502 0.0 10191012
16:00+18nnw545918 0.1 1018985
19:00+16n447019 0.1 1018618
22:00+14n226911 0.1 1019236
15 april, thu
thu1501:00+13nne23782 0.1 1019175
04:00+12nne33673 0.0 101878
07:00+11nne236392 0.0 101753
10:00+15n225385 0.0 1018596
13:00+17nw2355100 0.0 1018947
16:00+17nnw3366100 0.1 1017901
19:00+15n336317 0.2 1017572
22:00+13ne23794 0.1 1019216
16 april, fri
fri1601:00+12nne22670 0.1 101998
04:00+11nne22771 0.0 101762
07:00+11nne22730 0.0 101750
10:00+14nne12551 0.0 1018766
13:00+16nw226243 0.1 1018963
16:00+14nne1284100 0.4 1017524
19:00+14ne236929 0.6 1017540
22:00+12ene348633 0.0 1019205
17 april, sat
sat1701:00+12ene458538 0.1 1019203
04:00+11ene458522 0.0 1018141
07:00+11ene448823 0.0 1018160
10:00+14ene347234 0.0 1019568
13:00+18e34566 0.0 1018787
16:00+18ne135613 0.0 1017831
19:00+16e146927 0.0 1018632
22:00+14ene45707 0.0 1019171
18 april, sun
sun1801:00+13e44732 0.0 1020126
04:00+12e447314 0.0 101987
07:00+11e33711 0.0 101959
10:00+17ene23460 0.0 1019431
13:00+20n13360 0.0 1019809
16:00+19nnw13510 0.0 1018804
19:00+17ne12592 0.0 1018527
22:00+15ene23610 0.0 1020143